Starlink 31266

operational
NORAD ID: 59087 Int'l Des: 2024-041 Owner: SPXS Country: US Constellation: starlink
LEOCIRCULAR

About Starlink 31266

Description loading...

Live Position

Loading 3D Globe...

Upcoming Passes

Altitude History

Altitude vs Time

uPlot chart will show altitude changes over time

Two-Line Element Set

1 59087U 24041P 25257.34411754 .00001549 00000-0 65812-4 0 9995
2 59087 42.9991 226.4436 0000726 264.0613 96.0156 15.27578031 87358
Epoch: Sep 14, 2025 • Age: 28 hours

Current Status

Altitude 490.9 km
Velocity 7.62 km/s
Sub-Earth Point -30.52°S, 94.76°W
Launch Date Feb 29, 2024
Age 1.5 years
Type internet

Technical Details

Classification Payload
Mass 730.00 kg
Dry Mass 700.00 kg
Total Mass 730.00 kg
Length 0.30 m
Diameter 4.10 m
Span 29.00 m
Shape Box + pan
Manufacturer SPXS
Bus Type Starlink V2M
Phase Status In Orbit
Owner/State SPXS/US

Large Constellations

Loading constellations...